Weather Roundup
Issued by NWS

Home | Current Version | Previous Version | Graphics & Text | Print | Product List | Glossary Off
Versions: 1 2 3 4 5 6 7 8 9 10 11 12 13 14 15 16 17 18 19 20 21 22 23 24 25 26 27 28 29 30 31 32 33 34 35 36 37 38 39 40 41 42 43 44 45 46 47 48 49 50

000
NZUS93 KARX 231710
HRRWXR

CURRENT HOURLY OBSERVATIONS ACROSS
MUCH OF THE UPPER MISSISSIPPI VALLEY
NATIONAL WEATHER SERVICE LA CROSSE WI
1200 PM CDT THU OCT 23 2014


...SOUTHEAST MINNESOTA...


CITY           SKY/WX    TMP DP  RH WIND       PRES   REMARKS
ROCHESTER      CLOUDY    51  49  92 SW9       30.04S FOG
ROCHESTER/MAYO CLOUDY    51  50  96 S6        30.03S
WINONA         CLOUDY    52  48  87 SE5       30.04F
AUSTIN         CLOUDY    52  52 100 S6        30.02F FOG
ALBERT LEA     CLOUDY    54  54 100 SW5       30.03R
DODGE CENTER   CLOUDY    52  52 100 SW7       30.02S
PRESTON        CLOUDY    48  47  96 S8        30.04S FOG
OWATONNA       MOSUNNY   55  52  88 SW5       30.02S
FARIBAULT      CLOUDY    55  54  94 SW6       30.03R
$$

...ELSEWHERE IN MINNESOTA...


CITY           SKY/WX    TMP DP  RH WIND       PRES   REMARKS
MINNEAPOLIS    MOSUNNY   59  52  77 W7        30.00F
INTNL FALLS    MOSUNNY   60  49  66 SW10      29.88S
DULUTH         FOG       50  48  93 SW8       29.96S VSB 3/4
RED WING       NOT AVBL
REDWOOD FALLS  SUNNY     61  49  64 CALM      30.00F
MANKATO        SUNNY     59  48  67 W6        30.02S
WORTHINGTON    SUNNY     61  46  59 W9        30.04S
FAIRMONT       SUNNY     63  46  55 W6        30.03F
$$

...SOUTHWEST WISCONSIN...


CITY           SKY/WX    TMP DP  RH WIND       PRES   REMARKS
LA CROSSE      CLOUDY    50  46  86 S10       30.06S
PRAIRIE DU CHI RAIN      47  43  87 E5        30.08S
BOSCOBEL       LGT RAIN  48  44  86 S3        30.09F
LONE ROCK      RAIN      50  44  80 SE6       30.10F
PLATTEVILLE    CLOUDY    46  45  93 SE12      30.10F
FORT MC COY    LGT RAIN  47  46  95 S3        30.07S
CAMP DOUGLAS   LGT RAIN  46  46 100 SE8       30.07F
VIROQUA        CLOUDY    45  45 100 S7        30.07R
WIS DELLS      LGT RAIN  45  43  90 S8        30.09F
$$

...ELSEWHERE IN WISCONSIN...


CITY           SKY/WX    TMP DP  RH WIND       PRES   REMARKS
MILWAUKEE      PTSUNNY   56  40  55 SW10      30.15F
MADISON        CLOUDY    52  40  63 S10       30.11F
GREEN BAY      PTSUNNY   54  41  61 S7        30.12F
EAU CLAIRE     CLOUDY    49  47  93 S7        30.02F
BLACK RVR FLS  CLOUDY    47  47 100 CALM      30.05F FOG
MEDFORD        DRIZZLE   43  42  96 S8        30.04F
WAUSAU         RAIN      44  42  93 S6        30.06F FOG
WIS RAPIDS     LGT RAIN  45  43  93 S8        30.09F FOG
MARSHFIELD     LGT RAIN  45  43  93 S8        30.06F FOG
RICE LAKE      CLOUDY    49  48  95 SE5       30.03S FOG
$$

...NORTHEAST IOWA...


CITY           SKY/WX    TMP DP  RH WIND       PRES   REMARKS
DECORAH        CLOUDY    46  46 100 VRB6      30.05F
MASON CITY     CLOUDY    56  53  90 SW5       30.05S
CHARLES CITY   CLOUDY    50  50 100 S6        30.05S FOG
OELWEIN        CLOUDY    48  46  93 S8        30.07S FOG
$$

...ELSEWHERE IN IOWA...


CITY           SKY/WX    TMP DP  RH WIND       PRES   REMARKS
DES MOINES     CLOUDY    63  59  87 W6        30.05S
IOWA CITY      CLOUDY    52  48  86 SE8       30.11R
FORT DODGE     MOSUNNY   63  54  72 W7        30.06R
$$

...NORTHERN ILLINOIS...


CITY           SKY/WX    TMP DP  RH WIND       PRES   REMARKS
CHICAGO-OHARE  PTSUNNY   55  41  59 SW13G20   30.18F
CHICAGO-MIDWAY MOSUNNY   58  43  57 S13       30.19F
MOLINE         CLOUDY    58  44  60 S7        30.11S
ROCKFORD       CLOUDY    59  42  53 SW18      30.16F
PEORIA         PTSUNNY   54  43  66 S13       30.19S
$$

NOTE: "FAIR" INDICATES FEW OR NO CLOUDS BELOW 12,000 FEET WITH NO
SIGNIFICANT WEATHER AND/OR OBSTRUCTIONS TO VISIBILITY. WIND
SPEEDS ARE IN MILES-PER-HOUR.



USA.gov is the U.S. government's official web portal to all federal, state and local government web resources and services.